Regional Weather Roundup
Issued by NWS

Home | Current Version | Previous Version | Text Only | Print | Product List | Glossary Off
Versions: 1 2 3 4 5 6 7 8 9 10 11 12 13 14 15 16 17 18 19 20 21 22 23 24 25 26 27 28 29 30 31 32 33 34 35 36 37 38 39 40 41 42 43 44 45 46 47 48 49 50

000
ASUS45 KPSR 030810
RWRAZ

ARIZONA REGIONAL HOURLY WEATHER ROUNDUP
NATIONAL WEATHER SERVICE PHOENIX AZ
100 AM MST TUE MAR 03 2015

NOTE: FAIR INDICATES FEW OR NO CLOUDS BELOW 12,000 FEET WITH NO
SIGNIFICANT WEATHER AND/OR OBSTRUCTIONS TO VISIBILITY.

AZZ001>003-036-030900-
NORTHWEST ARIZONA

CITY           SKY/WX    TMP DP  RH WIND       PRES   REMARKS
BULLHEAD CITY  PTCLDY    52  45  76 S3        29.97F
KINGMAN        CLEAR     34  32  92 CALM      29.96F
$$

AZZ004>008-015-016-018-030900-
NORTH CENTRAL ARIZONA

CITY           SKY/WX    TMP DP  RH WIND       PRES   REMARKS
GRAND CANYON   CLOUDY    29  28  96 SW7       29.95F WCI  22
PRESCOTT       CLOUDY    36  32  85 S3        29.97F
FLAGSTAFF      NOT AVBL
PAYSON         CLOUDY    36  34  93 CALM      30.00S
$$

AZZ009>014-017-030900-
NORTHEAST ARIZONA

CITY           SKY/WX    TMP DP  RH WIND       PRES   REMARKS
WINSLOW        CLOUDY    36  31  82 S7        29.97F WCI  30
SAINT JOHNS    CLOUDY   N/A N/A N/A NW6       29.97F
WINDOW ROCK    LGT SNOW  32  28  85 W5        29.95F FOG     WCI  27
SHOW LOW       MOCLDY    30  28  93 S8        29.99F WCI  23
$$

AZZ023-030900-
GREATER PHOENIX AREA

CITY           SKY/WX    TMP DP  RH WIND       PRES   REMARKS
PHOENIX        CLOUDY    52  47  83 E6        29.96F
BUCKEYE        PTCLDY    50  50 100 E10       29.97F
LUKE AFB       MOCLDY    50  48  93 N6        29.97F
DEER VALLEY    CLOUDY    48  45  89 CALM      29.97F
SCOTTSDALE     CLOUDY    50  44  80 VRB3      29.98F
MESA-GATEWAY   PTCLDY    45  45 100 CALM      29.99F
$$

AZZ027-028-030900-
SOUTHWEST MARICOPA COUNTY AND PINAL COUNTY

CITY           SKY/WX    TMP DP  RH WIND       PRES   REMARKS
CASA GRANDE    CLEAR     45  41  87 N5        29.97F
GILA BEND      FAIR      52  49  91 E5        29.96F
$$

AZZ503-504-507>509-030900-
SOUTHEAST ARIZONA

CITY           SKY/WX    TMP DP  RH WIND       PRES   REMARKS
TUCSON         CLOUDY    52  47  83 N5        29.98F
DAVIS-MONTHAN  MOCLDY    51  46  83 NW5       29.95F
NOGALES        CLOUDY    49  43  80 S8        29.96F
SIERRA VISTA   LGT RAIN  46  46 100 NE5       29.95F FOG
DOUGLAS        RAIN      48  47  96 NW7       29.95F FOG
SAFFORD        CLOUDY    46  42  86 W5        29.96F
$$

AZZ020-021-025-026-031-030900-
SOUTHWEST ARIZONA

CITY           SKY/WX    TMP DP  RH WIND       PRES   REMARKS
YUMA           CLEAR     55  47  74 CALM      29.95F
$$

CAZ031-033-041-043-047-048-061-030900-
SOUTHERN CALIFORNIA

CITY           SKY/WX    TMP DP  RH WIND       PRES   REMARKS
DOWNTOWN L.A.  CLOUDY    54  45  71 VRB3      29.98S
L.A. AIRPORT   HVY RAIN  51  47  86 SE5       29.98S FOG
SAN DIEGO      PTCLDY    54  46  74 E7        29.98F
BURBANK        CLOUDY    52  44  74 CALM      29.97S
ONTARIO        MOCLDY    49  41  74 CALM      29.98S
RIVERSIDE      CLEAR     46  41  82 E5        29.99S
PALM SPRINGS   CLEAR     50  41  71 N8        29.97F
EL CENTRO NAS  CLEAR     50  42  74 NW7       29.94F
IMPERIAL       CLEAR     51  42  71 W5        29.94F
BLYTHE         CLEAR     51  45  79 SE3       29.95S
NEEDLES        CLEAR     50  43  77 CALM      29.95F
$$

NVZ020-UTZ003-030900-
SOUTHERN NEVADA-UTAH

CITY           SKY/WX    TMP DP  RH WIND       PRES   REMARKS
LAS VEGAS      CLEAR     46  36  68 N6        29.89S
SALT LAKE CITY PTCLDY    33  31  92 S8        29.77F WCI  26
$$

NMZ009-TXZ055-030900-
NEW MEXICO-WEST TEXAS

CITY           SKY/WX    TMP DP  RH WIND       PRES   REMARKS
ALBUQUERQUE    CLOUDY    42  33  70 NE3       29.97F
EL PASO        CLOUDY    57  44  62 SW9       29.92F
$$


........................KEY........................
SKY/WX - SKY CONDITION/WEATHER
TMP    - TEMPERATURE IN FAHRENHEIT
DP     - DEW POINT IN FAHRENHEIT
RH     - RELATIVE HUMIDITY IN PERCENT
WIND   - DIRECTION AND SPEED IN MILES PER HOUR (MPH)
VRB    - VARIABLE WIND DIRECTION
PRES   - MEAN SEA LEVEL PRESSURE IN INCHES OF MERCURY
         F - FALLING PRESSURE   R - RISING PRESSURE
         S - STEADY PRESSURE
VSB    - VISIBILITY IN MILES
HX     - HEAT INDEX IN FAHRENHEIT
WCI    - WIND CHILL INDEX IN FAHRENHEIT
TC     - TEMPERATURE IN CELSIUS WHICH IS ALSO KNOWN AS
         TEMPERATURE IN CENTIGRADE
AFB    - AIR FORCE BASE
         LUKE AFB IS LUKE AIR FORCE BASE
         DAVIS-MONTHAN IS DAVIS-MONTHAN AIR FORCE BASE
NAS    - NAVAL AIR STATION
         EL CENTRO NAS IS EL CENTRO NAVAL AIR STATION
N/A    - NOT AVAILABLE



USA.gov is the U.S. government's official web portal to all federal, state and local government web resources and services.